FW2998 Weather Reports


time (UTC)temp
F
wind
direction
speed
knots
gust
knots
rain 1hr
in
rain 24hr
in
rain mn
in
humidity
%
barometer
mb
20260903214024 97 0 0.0 0.0 0.00 0.00 0.00 54 1016.0
20260903213524 97 0 0.0 0.0 0.00 0.00 0.00 54 1015.8
20260903213058 98 0 0.0 0.0 0.00 0.00 0.00 53 1015.9
20260903212526 98 0 0.0 0.0 0.00 0.00 0.00 53 1015.9
20260903212026 98 0 0.0 0.0 0.00 0.00 0.00 53 1015.9
20260903211544 98 0 0.0 0.0 0.00 0.00 0.00 53 1015.9
20260903211021 98 0 0.0 0.0 0.00 0.00 0.00 53 1016.0
20260903210522 98 0 0.0 0.0 0.00 0.00 0.00 53 1015.9
20260903210103 98 0 0.0 0.0 0.00 0.00 0.00 53 1015.9
20260903205526 97 0 0.0 0.0 0.00 0.00 0.00 53 1016.0
20260903205023 97 0 0.0 0.0 0.00 0.00 0.00 55 1015.9
20260903204548 96 0 0.0 0.0 0.00 0.00 0.00 57 1015.9
20260903204022 96 0 0.0 0.0 0.00 0.00 0.00 55 1015.8
20260903203523 96 0 0.0 0.0 0.00 0.00 0.00 55 1015.9
20260903203104 96 0 0.0 0.0 0.00 0.00 0.00 54 1016.0
20260903202523 96 0 0.0 0.0 0.00 0.00 0.00 55 1016.1
20260903202021 96 0 0.0 0.0 0.00 0.00 0.00 55 1016.2
20260903201547 96 0 0.0 0.0 0.00 0.00 0.00 55 1016.2
20260903201025 96 0 0.0 0.0 0.00 0.00 0.00 55 1016.2
20260903200525 96 0 0.0 0.0 0.00 0.00 0.00 54 1016.3
20260903200051 96 0 0.0 0.0 0.00 0.00 0.00 54 1016.3
20260903195524 95 0 0.0 0.0 0.00 0.00 0.00 57 1016.5
20260903195024 95 0 0.0 0.0 0.00 0.00 0.00 56 1016.5
20260903194543 95 0 0.0 0.0 0.00 0.00 0.00 56 1016.6
20260903194024 95 0 0.0 0.0 0.00 0.00 0.00 58 1016.6
20260903193523 96 0 0.0 0.0 0.00 0.00 0.00 56 1016.7
20260903193047 95 0 0.0 0.0 0.00 0.00 0.00 59 1016.7
20260903192522 95 0 0.0 0.0 0.00 0.00 0.00 57 1016.7
20260903192023 95 0 0.0 0.0 0.00 0.00 0.00 57 1016.8
20260903191542 95 0 0.0 0.0 0.00 0.00 0.00 55 1016.8
20260903191023 95 0 0.0 0.0 0.00 0.00 0.00 57 1017.0
20260903190522 96 0 0.0 0.0 0.00 0.00 0.00 56 1016.9
20260903190044 95 0 0.0 0.0 0.00 0.00 0.00 57 1017.0
20260903185524 96 0 0.0 0.0 0.00 0.00 0.00 58 1017.0
20260903185023 96 0 0.0 0.0 0.00 0.00 0.00 59 1017.1
20260903184544 95 0 0.0 0.0 0.00 0.00 0.00 61 1017.1
20260903184026 95 0 0.0 0.0 0.00 0.00 0.00 58 1017.2
20260903183523 95 0 0.0 0.0 0.00 0.00 0.00 58 1017.3
20260903183049 95 0 0.0 0.0 0.00 0.00 0.00 57 1017.3
20260903182521 95 0 0.0 0.0 0.00 0.00 0.00 59 1017.4
20260903182023 95 0 0.0 0.0 0.00 0.00 0.00 59 1017.3
20260903181543 94 0 0.0 0.0 0.00 0.00 0.00 59 1017.4
20260903181023 94 0 0.0 0.0 0.00 0.00 0.00 59 1017.5
20260903180520 94 0 0.0 0.0 0.00 0.00 0.00 60 1017.4
20260903180046 95 0 0.0 0.0 0.00 0.00 0.00 58 1017.4
20260903175523 94 0 0.0 0.0 0.00 0.00 0.00 61 1017.5
20260903175023 94 0 0.0 0.0 0.00 0.00 0.00 61 1017.4
20260903174544 93 0 0.0 0.0 0.00 0.00 0.00 62 1017.4
20260903174022 93 0 0.0 0.0 0.00 0.00 0.00 62 1017.6
20260903173521 93 0 0.0 0.0 0.00 0.00 0.00 61 1017.6
20260903173047 94 0 0.0 0.0 0.00 0.00 0.00 60 1017.6
20260903172526 94 0 0.0 0.0 0.00 0.00 0.00 61 1017.6
20260903172023 94 0 0.0 0.0 0.00 0.00 0.00 61 1017.6
20260903171549 94 0 0.0 0.0 0.00 0.00 0.00 59 1017.7
20260903171021 94 0 0.0 0.0 0.00 0.00 0.00 60 1017.7
20260903170523 94 0 0.0 0.0 0.00 0.00 0.00 60 1017.8
20260903170046 94 0 0.0 0.0 0.00 0.00 0.00 61 1017.8
20260903165523 93 0 0.0 0.0 0.00 0.00 0.00 61 1017.9
20260903165023 93 0 0.0 0.0 0.00 0.00 0.00 62 1017.9
20260903164547 93 0 0.0 0.0 0.00 0.00 0.00 59 1017.9
20260903164028 93 0 0.0 0.0 0.00 0.00 0.00 64 1017.9
20260903163523 92 0 0.0 0.0 0.00 0.00 0.00 62 1018.1
20260903163043 92 0 0.0 0.0 0.00 0.00 0.00 66 1018.1
20260903162525 92 0 0.0 0.0 0.00 0.00 0.00 64 1018.2
20260903162027 92 0 0.0 0.0 0.00 0.00 0.00 63 1018.2
20260903161553 91 0 0.0 0.0 0.00 0.00 0.00 63 1018.3
20260903161023 91 0 0.0 0.0 0.00 0.00 0.00 65 1018.3
20260903160525 91 0 0.0 0.0 0.00 0.00 0.00 63 1018.5
20260903160045 91 0 0.0 0.0 0.00 0.00 0.00 64 1018.6
20260903155526 91 0 0.0 0.0 0.00 0.00 0.00 63 1018.7
20260903155027 91 0 0.0 0.0 0.00 0.00 0.00 64 1018.6
20260903154605 91 0 0.0 0.0 0.00 0.00 0.00 64 1018.7
20260903154024 91 0 0.0 0.0 0.00 0.00 0.00 65 1018.6
20260903153524 91 0 0.0 0.0 0.00 0.00 0.00 64 1018.6
20260903153044 90 0 0.0 0.0 0.00 0.00 0.00 63 1018.7
20260903152525 93 0 0.0 0.0 0.00 0.00 0.00 61 1018.7
20260903152023 94 0 0.0 0.0 0.00 0.00 0.00 61 1018.7
20260903151551 94 0 0.0 0.0 0.00 0.00 0.00 60 1018.8
20260903151025 94 0 0.0 0.0 0.00 0.00 0.00 63 1018.8
20260903150524 94 0 0.0 0.0 0.00 0.00 0.00 62 1018.6
20260903150043 93 0 0.0 0.0 0.00 0.00 0.00 63 1018.6
20260903145526 93 0 0.0 0.0 0.00 0.00 0.00 63 1018.6
20260903145024 92 0 0.0 0.0 0.00 0.00 0.00 64 1018.6
20260903144545 92 0 0.0 0.0 0.00 0.00 0.00 65 1018.6
20260903144029 91 0 0.0 0.0 0.00 0.00 0.00 66 1018.6
20260903143522 91 0 0.0 0.0 0.00 0.00 0.00 64 1018.6
20260903143102 91 0 0.0 0.0 0.00 0.00 0.00 63 1018.6
20260903142527 91 0 0.0 0.0 0.00 0.00 0.00 63 1018.7
20260903142026 90 0 0.0 0.0 0.00 0.00 0.00 64 1018.6
20260903141557 90 0 0.0 0.0 0.00 0.00 0.00 67 1018.6
20260903141030 89 0 0.0 0.0 0.00 0.00 0.00 66 1018.7
20260903140524 89 0 0.0 0.0 0.00 0.00 0.00 68 1018.7
20260903140046 88 0 0.0 0.0 0.00 0.00 0.00 67 1018.6
20260903135525 88 0 0.0 0.0 0.00 0.00 0.00 70 1018.5
20260903135028 87 0 0.0 0.0 0.00 0.00 0.00 71 1018.6
20260903134542 86 0 0.0 0.0 0.00 0.00 0.00 75 1018.6
20260903134025 86 0 0.0 0.0 0.00 0.00 0.00 78 1018.6
20260903133524 84 0 0.0 0.0 0.00 0.00 0.00 79 1018.6
20260903133046 84 0 0.0 0.0 0.00 0.00 0.00 80 1018.8
20260903132525 83 0 0.0 0.0 0.00 0.00 0.00 83 1018.7
20260903132024 82 0 0.0 0.0 0.00 0.00 0.00 85 1018.7
20260903131546 81 0 0.0 0.0 0.00 0.00 0.00 86 1018.8
20260903131023 80 0 0.0 0.0 0.00 0.00 0.00 89 1018.7
20260903130523 80 0 0.0 0.0 0.00 0.00 0.00 91 1018.7
20260903130043 79 0 0.0 0.0 0.00 0.00 0.00 94 1018.7
20260903125525 78 0 0.0 0.0 0.00 0.00 0.00 94 1018.8
20260903125025 78 0 0.0 0.0 0.00 0.00 0.00 94 1018.8
20260903124547 77 0 0.0 0.0 0.00 0.00 0.00 94 1018.8
20260903124018 77 0 0.0 0.0 0.00 0.00 0.00 94 1018.9
20260903123519 77 0 0.0 0.0 0.00 0.00 0.00 94 1018.9
20260903123044 76 0 0.0 0.0 0.00 0.00 0.00 94 1019.0
20260903122521 76 0 0.0 0.0 0.00 0.00 0.00 94 1018.9
20260903122019 75 0 0.0 0.0 0.00 0.00 0.00 93 1018.8
20260903121544 75 0 0.0 0.0 0.00 0.00 0.00 93 1018.9
20260903121025 75 0 0.0 0.0 0.00 0.00 0.00 92 1018.8
20260903120525 75 0 0.0 0.0 0.00 0.00 0.00 92 1018.8
20260903120044 75 0 0.0 0.0 0.00 0.00 0.00 92 1018.8
20260903115524 74 0 0.0 0.0 0.00 0.00 0.00 92 1018.7
20260903115024 74 0 0.0 0.0 0.00 0.00 0.00 91 1018.8
20260903114546 74 0 0.0 0.0 0.00 0.00 0.00 91 1018.6
20260903114023 74 0 0.0 0.0 0.00 0.00 0.00 91 1018.7
20260903113524 74 0 0.0 0.0 0.00 0.00 0.00 90 1018.6
20260903113044 74 0 0.0 0.0 0.00 0.00 0.00 90 1018.5
20260903112520 74 0 0.0 0.0 0.00 0.00 0.00 90 1018.5
20260903112027 74 0 0.0 0.0 0.00 0.00 0.00 90 1018.5
20260903111543 74 0 0.0 0.0 0.00 0.00 0.00 90 1018.4
20260903111023 74 0 0.0 0.0 0.00 0.00 0.00 90 1018.5
20260903110526 75 0 0.0 0.0 0.00 0.00 0.00 90 1018.4
20260903110052 75 0 0.0 0.0 0.00 0.00 0.00 90 1018.3
20260903105525 75 0 0.0 0.0 0.00 0.00 0.00 90 1018.3
20260903105023 75 0 0.0 0.0 0.00 0.00 0.00 90 1018.2
20260903104547 75 0 0.0 0.0 0.00 0.00 0.00 90 1018.2
20260903104022 75 0 0.0 0.0 0.00 0.00 0.00 90 1018.2
20260903103521 75 0 0.0 0.0 0.00 0.00 0.00 89 1018.1
20260903103050 75 0 0.0 0.0 0.00 0.00 0.00 89 1018.1
20260903102522 75 0 0.0 0.0 0.00 0.00 0.00 89 1018.1
20260903102027 75 0 0.0 0.0 0.00 0.00 0.00 89 1018.0
20260903101543 75 0 0.0 0.0 0.00 0.00 0.00 88 1017.9
20260903101025 75 0 0.0 0.0 0.00 0.00 0.00 88 1017.9
20260903100526 75 0 0.0 0.0 0.00 0.00 0.00 88 1018.0
20260903100043 75 0 0.0 0.0 0.00 0.00 0.00 88 1018.0
20260903095524 75 0 0.0 0.0 0.00 0.00 0.00 88 1018.0
20260903095018 75 0 0.0 0.0 0.00 0.00 0.00 88 1017.9
20260903094544 75 0 0.0 0.0 0.00 0.00 0.00 88 1017.9
20260903094033 75 0 0.0 0.0 0.00 0.00 0.00 88 1018.0
20260903093522 75 0 0.0 0.0 0.00 0.00 0.00 88 1018.0
20260903093102 75 0 0.0 0.0 0.00 0.00 0.00 88 1017.9
20260903092529 75 0 0.0 0.0 0.00 0.00 0.00 88 1017.9
20260903092025 76 0 0.0 0.0 0.00 0.00 0.00 88 1017.8
20260903091543 76 0 0.0 0.0 0.00 0.00 0.00 88 1017.8
20260903091024 76 0 0.0 0.0 0.00 0.00 0.00 87 1017.9
20260903090524 76 0 0.0 0.0 0.00 0.00 0.00 87 1017.9
20260903090051 76 0 0.0 0.0 0.00 0.00 0.00 87 1017.9
20260903085523 76 0 0.0 0.0 0.00 0.00 0.00 87 1017.9
20260903085022 76 0 0.0 0.0 0.00 0.00 0.00 86 1017.8
20260903084543 76 0 0.0 0.0 0.00 0.00 0.00 86 1017.8
20260903084026 76 0 0.0 0.0 0.00 0.00 0.00 86 1017.8
20260903083529 76 0 0.0 0.0 0.00 0.00 0.00 86 1017.9
20260903083044 76 0 0.0 0.0 0.00 0.00 0.00 86 1017.8
20260903082526 76 0 0.0 0.0 0.00 0.00 0.00 86 1017.8
20260903082025 76 0 0.0 0.0 0.00 0.00 0.00 86 1017.8
20260903081544 76 0 0.0 0.0 0.00 0.00 0.00 86 1017.7
20260903081023 77 0 0.0 0.0 0.00 0.00 0.00 86 1017.7
20260903080524 77 0 0.0 0.0 0.00 0.00 0.00 86 1017.7
20260903080047 77 0 0.0 0.0 0.00 0.00 0.00 86 1017.6
20260903075525 77 0 0.0 0.0 0.00 0.00 0.00 86 1017.6
20260903075024 77 0 0.0 0.0 0.00 0.00 0.00 86 1017.6
20260903074543 77 0 0.0 0.0 0.00 0.00 0.00 86 1017.4
20260903074028 77 0 0.0 0.0 0.00 0.00 0.00 86 1017.4
20260903073525 77 0 0.0 0.0 0.00 0.00 0.00 86 1017.4
20260903073043 77 0 0.0 0.0 0.00 0.00 0.00 86 1017.4
20260903072522 77 0 0.0 0.0 0.00 0.00 0.00 86 1017.3
20260903072029 78 0 0.0 0.0 0.00 0.00 0.00 86 1017.3
20260903071544 78 0 0.0 0.0 0.00 0.00 0.00 86 1017.2
20260903071023 78 0 0.0 0.0 0.00 0.00 0.00 86 1017.3
20260903070523 78 0 0.0 0.0 0.00 0.00 0.00 85 1017.3
20260903070057 78 0 0.0 0.0 0.00 0.00 0.00 85 1017.3
20260903065525 78 0 0.0 0.0 0.00 0.00 0.00 85 1017.1
20260903065025 78 0 0.0 0.0 0.00 0.00 0.00 85 1017.2
20260903064542 78 0 0.0 0.0 0.00 0.00 0.00 85 1017.3
20260903064024 79 0 0.0 0.0 0.00 0.00 0.00 85 1017.4
20260903063521 79 0 0.0 0.0 0.00 0.00 0.00 85 1017.4
20260903063108 79 0 0.0 0.0 0.00 0.00 0.00 85 1017.4
20260903062521 79 0 0.0 0.0 0.00 0.00 0.00 85 1017.3
20260903062020 79 0 0.0 0.0 0.00 0.00 0.00 85 1017.3
20260903061543 79 0 0.0 0.0 0.00 0.00 0.00 84 1017.4
20260903061024 79 0 0.0 0.0 0.00 0.00 0.00 84 1017.5
20260903060528 79 0 0.0 0.0 0.00 0.00 0.00 84 1017.4
20260903060045 79 0 0.0 0.0 0.00 0.00 0.00 84 1017.3
20260903055522 79 0 0.0 0.0 0.00 0.00 0.00 85 1017.4
20260903055024 79 0 0.0 0.0 0.00 0.00 0.00 85 1017.4
20260903054545 80 0 0.0 0.0 0.00 0.00 0.00 85 1017.4
20260903054018 80 0 0.0 0.0 0.00 0.00 0.00 85 1017.4
20260903053520 80 0 0.0 0.0 0.00 0.00 0.00 84 1017.4
20260903053043 80 0 0.0 0.0 0.00 0.00 0.00 84 1017.3
20260903052525 80 0 0.0 0.0 0.00 0.00 0.00 84 1017.3
20260903052024 80 0 0.0 0.0 0.00 0.00 0.00 84 1017.4
20260903051548 80 0 0.0 0.0 0.00 0.00 0.00 84 1017.5
20260903051024 80 0 0.0 0.0 0.00 0.00 0.00 83 1017.5
20260903050525 80 0 0.0 0.0 0.00 0.00 0.00 83 1017.5
20260903050110 80 0 0.0 0.0 0.00 0.00 0.00 83 1017.6
20260903045520 80 0 0.0 0.0 0.00 0.00 0.00 82 1017.7
20260903045021 80 0 0.0 0.0 0.00 0.00 0.00 82 1017.8
20260903044543 80 0 0.0 0.0 0.00 0.00 0.00 82 1017.9
20260903044025 81 0 0.0 0.0 0.00 0.00 0.00 82 1017.9
20260903043525 81 0 0.0 0.0 0.00 0.00 0.00 81 1017.9
20260903043043 81 0 0.0 0.0 0.00 0.00 0.00 81 1017.9
20260903042524 81 0 0.0 0.0 0.00 0.00 0.00 81 1017.9
20260903042024 81 0 0.0 0.0 0.00 0.00 0.00 81 1017.8
20260903041545 81 0 0.0 0.0 0.00 0.00 0.00 80 1017.9
20260903041019 81 0 0.0 0.0 0.00 0.00 0.00 80 1017.9
20260903040519 81 0 0.0 0.0 0.00 0.00 0.00 80 1018.0
20260903040054 81 0 0.0 0.0 0.00 0.00 0.00 79 1018.0
20260903035525 81 0 0.0 0.0 0.00 0.00 0.00 79 1018.0
20260903035025 82 0 0.0 0.0 0.00 0.00 0.00 79 1018.0
20260903034542 82 0 0.0 0.0 0.00 0.00 0.00 79 1018.1
20260903034024 82 0 0.0 0.0 0.00 0.00 0.00 79 1018.1
20260903033525 82 0 0.0 0.0 0.00 0.00 0.00 79 1018.2
20260903033046 82 0 0.0 0.0 0.00 0.00 0.00 79 1018.2
20260903032526 82 0 0.0 0.0 0.00 0.00 0.00 79 1018.2
20260903032023 82 0 0.0 0.0 0.00 0.00 0.00 78 1018.2
20260903031543 82 0 0.0 0.0 0.00 0.00 0.00 78 1018.2
20260903031021 82 0 0.0 0.0 0.00 0.00 0.00 78 1018.2
20260903030521 83 0 0.0 0.0 0.00 0.00 0.00 78 1018.2
20260903030043 83 0 0.0 0.0 0.00 0.00 0.00 78 1018.3
20260903025521 83 0 0.0 0.0 0.00 0.00 0.00 77 1018.3
20260903025023 83 0 0.0 0.0 0.00 0.00 0.00 77 1018.4
20260903024544 83 0 0.0 0.0 0.00 0.00 0.00 77 1018.4
20260903024024 83 0 0.0 0.0 0.00 0.00 0.00 77 1018.2
20260903023525 83 0 0.0 0.0 0.00 0.00 0.00 77 1018.2
20260903023045 83 0 0.0 0.0 0.00 0.00 0.00 76 1018.2
20260903022524 84 0 0.0 0.0 0.00 0.00 0.00 76 1018.3
20260903022021 84 0 0.0 0.0 0.00 0.00 0.00 76 1018.3
20260903021546 84 0 0.0 0.0 0.00 0.00 0.00 75 1018.2
20260903021019 84 0 0.0 0.0 0.00 0.00 0.00 75 1018.2
20260903020521 84 0 0.0 0.0 0.00 0.00 0.00 75 1018.2
20260903020050 84 0 0.0 0.0 0.00 0.00 0.00 75 1018.1
20260903015519 84 0 0.0 0.0 0.00 0.00 0.00 75 1018.1
20260903015020 85 0 0.0 0.0 0.00 0.00 0.00 75 1018.1
20260903014549 85 0 0.0 0.0 0.00 0.00 0.00 75 1018.1
20260903014022 85 0 0.0 0.0 0.00 0.00 0.00 74 1018.0
20260903013521 85 0 0.0 0.0 0.00 0.00 0.00 74 1018.0
20260903013044 85 0 0.0 0.0 0.00 0.00 0.00 74 1017.8
20260903012525 85 0 0.0 0.0 0.00 0.00 0.00 74 1017.7
20260903012027 85 0 0.0 0.0 0.00 0.00 0.00 74 1017.7
20260903011557 85 0 0.0 0.0 0.00 0.00 0.00 73 1017.5
20260903011019 86 0 0.0 0.0 0.00 0.00 0.00 73 1017.5
20260903010519 86 0 0.0 0.0 0.00 0.00 0.00 73 1017.4
20260903010043 86 0 0.0 0.0 0.00 0.00 0.00 72 1017.4
20260903005520 86 0 0.0 0.0 0.00 0.00 0.00 72 1017.4
20260903005023 86 0 0.0 0.0 0.00 0.00 0.00 71 1017.4
20260903004543 87 0 0.0 0.0 0.00 0.00 0.00 71 1017.3
20260903004026 87 0 0.0 0.0 0.00 0.00 0.00 71 1017.1
20260903003520 87 0 0.0 0.0 0.00 0.00 0.00 70 1017.1
20260903003043 87 0 0.0 0.0 0.00 0.00 0.00 69 1017.0
20260903002521 88 0 0.0 0.0 0.00 0.00 0.00 69 1017.0
20260903002024 88 0 0.0 0.0 0.00 0.00 0.00 69 1016.9
20260903001544 88 0 0.0 0.0 0.00 0.00 0.00 69 1016.8
20260903001022 89 0 0.0 0.0 0.00 0.00 0.00 68 1016.8
20260903000524 89 0 0.0 0.0 0.00 0.00 0.00 67 1016.8
20260903000043 89 0 0.0 0.0 0.00 0.00 0.00 67 1016.8
20260902235525 90 0 0.0 0.0 0.00 0.00 0.00 66 1016.8
20260902235023 90 0 0.0 0.0 0.00 0.00 0.00 66 1016.7
20260902234546 90 0 0.0 0.0 0.00 0.00 0.00 65 1016.6
20260902234025 91 0 0.0 0.0 0.00 0.00 0.00 64 1016.5
20260902233526 91 0 0.0 0.0 0.00 0.00 0.00 64 1016.6
20260902233051 91 0 0.0 0.0 0.00 0.00 0.00 64 1016.6
20260902232523 91 0 0.0 0.0 0.00 0.00 0.00 63 1016.6
20260902232023 92 0 0.0 0.0 0.00 0.00 0.00 63 1016.4
20260902231554 92 0 0.0 0.0 0.00 0.00 0.00 63 1016.5
20260902231021 92 0 0.0 0.0 0.00 0.00 0.00 63 1016.5
20260902230524 93 0 0.0 0.0 0.00 0.00 0.00 62 1016.5
20260902230041 93 0 0.0 0.0 0.00 0.00 0.00 62 1016.5
20260902225521 93 0 0.0 0.0 0.00 0.00 0.00 63 1016.5
20260902225024 94 0 0.0 0.0 0.00 0.00 0.00 61 1016.5
20260902224552 94 0 0.0 0.0 0.00 0.00 0.00 61 1016.5
20260902224023 94 0 0.0 0.0 0.00 0.00 0.00 61 1016.5
20260902223525 94 0 0.0 0.0 0.00 0.00 0.00 60 1016.6
20260902223044 95 0 0.0 0.0 0.00 0.00 0.00 59 1016.6
20260902222523 95 0 0.0 0.0 0.00 0.00 0.00 60 1016.5
20260902222024 95 0 0.0 0.0 0.00 0.00 0.00 58 1016.4
20260902221549 95 0 0.0 0.0 0.00 0.00 0.00 57 1016.5
20260902221027 95 0 0.0 0.0 0.00 0.00 0.00 57 1016.5
20260902220523 95 0 0.0 0.0 0.00 0.00 0.00 59 1016.4
20260902220045 95 0 0.0 0.0 0.00 0.00 0.00 58 1016.5
20260902215522 95 0 0.0 0.0 0.00 0.00 0.00 57 1016.5
20260902215025 95 0 0.0 0.0 0.00 0.00 0.00 57 1016.6
20260902214544 95 0 0.0 0.0 0.00 0.00 0.00 58 1016.6